Other Public Products
Issued by NWS Grand Forks, ND

Home | Current Version | Previous Version | Text Only | Print | Product List | Glossary On
Versions: 1 2 3 4 5 6 7 8 9 10 11 12 13 14 15 16 17 18 19 20 21 22 23 24 25 26 27 28 29 30 31 32 33 34 35 36 37 38 39 40 41 42 43 44 45 46 47 48 49 50
000
FPUS83 KFGF 240031
OPUFGF
PRAIRIE TO PINES WEATHER ROUNDUP
NATIONAL WEATHER SERVICE EASTERN NORTH DAKOTA/GRAND FORKS ND
700 PM CDT TUE SEP 23 2014

 **SATELLITE DATA USED TO AUGMENT SKY COVER AT AUTOMATED STATIONS**
 *****  WEATHER ACROSS EASTERN NORTH DAKOTA  *****

CITY           SKY/WX    TMP DP  RH WIND       PRES   REMARKS
GRAND FORKS    PTCLDY    69  50  50 S22G30    29.99R
6HR MIN TEMP:  69; 6HR MAX TEMP:  78;

GRAND FORKS AF CLEAR     69  52  53 S22G31    29.98R
GRAND CITY NWS   N/A     66 N/A N/A S18         N/A
BUXTON           N/A     65  55  69 S13         N/A
DEVILS LAKE    CLOUDY    64  52  63 S21G29    29.95R
6HR MIN TEMP:  66; 6HR MAX TEMP:  77;

FARGO          CLOUDY    65  52  62 SE15G21   30.03S
6HR MIN TEMP:  65; 6HR MAX TEMP:  77;

WAHPETON ARPT  CLOUDY    63  50  63 S17G29    30.05R
$$

 *****  WEATHER ACROSS CENTRAL AND WESTERN NORTH DAKOTA  *****

CITY           SKY/WX    TMP DP  RH WIND       PRES   REMARKS
JAMESTOWN      CLOUDY    60  53  77 S22G29    29.98S
6HR MIN TEMP:  59; 6HR MAX TEMP:  70;

BISMARCK       CLOUDY    64  57  78 SE10      29.93S
6HR MIN TEMP:  63; 6HR MAX TEMP:  72;

MINOT          CLEAR     71  57  61 SE13      29.85S
6HR MIN TEMP:  71; 6HR MAX TEMP:  80;

MINOT AFB      CLEAR     72  60  65 S14       29.84S
6HR MIN TEMP:  72; 6HR MAX TEMP:  79;

GARRISON         N/A     67  58  72 SE12      29.88S
6HR MIN TEMP:  67; 6HR MAX TEMP:  77;

WILLISTON      CLEAR     82  53  36 S3        29.82S
6HR MIN TEMP:  73; 6HR MAX TEMP:  85;

DICKINSON      CLEAR     74  59  59 SE9       29.85R
6HR MIN TEMP:  73; 6HR MAX TEMP:  81;

HETTINGER      CLEAR     74  56  53 SE10      29.88S
6HR MIN TEMP:  73; 6HR MAX TEMP:  80;

$$

 *****  OTHER OBSERVATIONS NORTHEAST NORTH DAKOTA  *****

CITY           SKY/WX    TMP DP  RH WIND       PRES   REMARKS
WALHALLA         N/A     72  55  56 S15G21    29.93R
LANGDON        FAIR      68  57  68 S17G23    29.94R
CAVALIER       FAIR      72  54  53 S15G25    29.94R
GRAFTON        FAIR      68  50  52 S17G24    29.97R
CANDO          CLOUDY    64  57  77 S17       29.94R
FORT TOTTEN    NOT AVBL
ROLLA          FAIR      64  57  77 S15G23    29.93R
RUGBY          CLOUDY    63  57  82 S13G20    29.92S
 ***** THE ABOVE OBSERVATIONS ARE NON NWS ARE NOT QUALITY
        CONTROLLED AND MAY MIS-REPORT RAIN FOR SNOW...
$$

 *****  OTHER OBSERVATIONS SOUTHEAST NORTH DAKOTA *****

CITY           SKY/WX    TMP DP  RH WIND       PRES   REMARKS
COOPERSTOWN    NOT AVBL
VALLEY CITY    CLOUDY    63  54  72 S12       30.01R
OAKES            N/A     57  57 100 SE12      30.01S FOG
GWINNER        CLOUDY    61  55  82 SE12      30.03S
SHEYENNE NWR     N/A     62  54  75 SE12      29.95S
BUFFALO          N/A     62  48  60 S9          N/A
WYNDMERE         N/A     63  55  77 SE5         N/A
 ***** THE ABOVE OBSERVATIONS ARE NON NWS ARE NOT QUALITY
       CONTROLLED AND MAY MIS-REPORT RAIN FOR SNOW...
$$

  *****  WEATHER ACROSS NORTHERN MINNESOTA  *****

CITY           SKY/WX    TMP DP  RH WIND       PRES   REMARKS
FLAG ISLAND    CLEAR     63  57  82 S10       30.00R
WARROAD        PTCLDY    66  55  68 S3        30.02S
ROSEAU         PTCLDY    64  55  72 S5        30.01S
HALLOCK        MOCLDY    72  46  40 S18G26    29.96S
THF RVR FALLS  PTCLDY    66  50  55 S17       30.03S
6HR MIN TEMP:  66; 6HR MAX TEMP:  77;

HALSTAD          N/A     63  48  57 S12         N/A
FOSSTON        MOCLDY    63  50  63 S10G18    30.07S
BAUDETTE       PTCLDY    67  51  56 S8        30.04S
6HR MIN TEMP:  67; 6HR MAX TEMP:  76;

WASKISH        MOCLDY    64  54  68 CALM      30.07R
CROOKSTON      PTCLDY    66  52  59 S17G23    30.03S
$$
  *****  WEATHER ACROSS CENTRAL AND WEST MINNESOTA  *****

CITY           SKY/WX    TMP DP  RH WIND       PRES   REMARKS
BEMIDJI        PTCLDY    65  52  62 S3        30.08R
PARK RAPIDS    PTCLDY    64  53  67 S8        30.09S
6HR MIN TEMP:  64; 6HR MAX TEMP:  75;

WADENA         PTCLDY    63  54  72 SE5       30.08S
DETROIT LAKES  MOCLDY    61  54  77 S5        30.08F
MOORHEAD       CLOUDY    64  52  63 S6        30.05F
FERGUS FALLS   CLOUDY    64  50  59 SE7       30.06S
ELBOW LAKE     CLOUDY    60  55  81 S20       30.07R
6HR MIN TEMP:  63; 6HR MAX TEMP:  69;

MORRIS MN      CLOUDY    59  54  82 SE14      30.07F
STAPLES        PTCLDY    64  52  63 SE3       30.09F
WHEATON        MOCLDY    57  52  82 SE16G26   30.07S
$$
  *****  WEATHER ELSEWHERE ACROSS MINNESOTA  *****

CITY           SKY/WX    TMP DP  RH WIND       PRES   REMARKS
DULUTH         MOCLDY    66  51  58 SE6       30.15S
6HR MIN TEMP:  66; 6HR MAX TEMP:  73;

INTRNTL FALLS  CLEAR     65  51  60 S3        30.07S
6HR MIN TEMP:  65; 6HR MAX TEMP:  74;

ELY            CLEAR     63  48  59 S3        30.14S
CLOQUET        MOCLDY    64  50  59 CALM      30.15S
BRAINERD       PTCLDY    64  53  67 SE5       30.11F
6HR MIN TEMP:  64; 6HR MAX TEMP:  73;

HIBBING        MOCLDY    65  52  62 S6        30.13S
6HR MIN TEMP:  65; 6HR MAX TEMP:  75;

ALEXANDRIA     CLOUDY    66  51  58 S14G25    30.10S
6HR MIN TEMP:  65; 6HR MAX TEMP:  71;

SAINT CLOUD    MOCLDY    70  53  54 SE8       30.11S
6HR MIN TEMP:  70; 6HR MAX TEMP:  76;

MINNEAPOLIS    MOCLDY    69  50  50 SE9       30.14S
6HR MIN TEMP:  69; 6HR MAX TEMP:  74;

$$

  *****  WEATHER ACROSS SOUTH DAKOTA  *****

CITY           SKY/WX    TMP DP  RH WIND       PRES   REMARKS
SIOUX FALLS    CLOUDY    62  55  77 S14       30.03S
6HR MIN TEMP:  59; 6HR MAX TEMP:  63; 6HR PCP:  0.03;

BROOKINGS      NOT AVBL
WATERTOWN      LGT RAIN  55  54  96 S13       30.03S
6HR MIN TEMP:  55; 6HR MAX TEMP:  58; 6HR PCP:  0.20;

HURON          CLOUDY    59  58  96 SE8       29.96F FOG
6HR MIN TEMP:  57; 6HR MAX TEMP:  60; 6HR PCP: TRACE;

SISSETON         N/A     60  56  86 S17G25    30.02F
ABERDEEN       LGT RAIN  58  57  97 SE7       29.98F FOG
6HR MIN TEMP:  57; 6HR MAX TEMP:  58; 6HR PCP:  0.44;

MITCHELL       CLOUDY    63  58  83 SE14      29.97S
PIERRE         PTCLDY    67  57  70 E16       29.88S
6HR MIN TEMP:  64; 6HR MAX TEMP:  71;

MOBRIDGE       CLOUDY    63  58  83 SE13      29.90S
RAPID CITY     CLEAR     78  54  43 E3        29.93R
6HR MIN TEMP:  75; 6HR MAX TEMP:  82;

$$

  *****  SOME WEATHER IN NEARBY STATES *****

CITY           SKY/WX    TMP DP  RH WIND       PRES   REMARKS
GLASGOW MT     CLEAR     80  54  40 W6        29.85R
6HR MIN TEMP:  72; 6HR MAX TEMP:  83;

GREAT FALLS MT PTSUNNY   75  47  36 SW17      29.95S
6HR MIN TEMP:  75; 6HR MAX TEMP:  81;

CHEYENNE WY    MOCLDY    72  38  29 NW13G24   30.16S
6HR MIN TEMP:  69; 6HR MAX TEMP:  76;

SCOTTSBLUFF NE MOCLDY    78  48  34 N13       30.01R
6HR MIN TEMP:  77; 6HR MAX TEMP:  86;

OMAHA NE       CLOUDY    66  53  63 S21       30.09F
6HR MIN TEMP:  64; 6HR MAX TEMP:  73;

DES MOINES IA  CLOUDY    68  53  58 SE10      30.16F
6HR MIN TEMP:  68; 6HR MAX TEMP:  72;

DAVENPORT IA   PTCLDY    65  46  50 S5        30.24S
6HR MIN TEMP:  65; 6HR MAX TEMP:  75;

CHICAGO IL     PTCLDY    68  48  48 E5        30.28R
6HR MIN TEMP:  67; 6HR MAX TEMP:  74;

EAU CLAIRE WI  MOCLDY    67  52  58 SE7       30.19F
6HR MIN TEMP:  67; 6HR MAX TEMP:  74;

LA CROSSE WI   PTCLDY    69  51  52 SE6       30.20S
6HR MIN TEMP:  69; 6HR MAX TEMP:  77;

$$

  *****  SOME NATIONAL WEATHER *****

CITY           SKY/WX    TMP DP  RH WIND       PRES   REMARKS


USA.gov is the U.S. government's official web portal to all federal, state and local government web resources and services.